TimeCST,TemperatureF,Dew PointF,Humidity,Sea Level PressureIn,VisibilityMPH,Wind Direction,Wind SpeedMPH,Gust SpeedMPH,PrecipitationIn,Events,Conditions,WindDirDegrees,DateUTC
12:15 AM,69.8,66.2,88,30.03,10.0,SSW,9.2,16.1,N/A,,Overcast,200,2012-12-04 06:15:00
12:35 AM,69.8,66.2,88,30.03,10.0,SSW,8.1,16.1,N/A,,Mostly Cloudy,200,2012-12-04 06:35:00
12:55 AM,69.8,64.4,83,30.02,10.0,SSW,6.9,-,N/A,,Overcast,200,2012-12-04 06:55:00
1:15 AM,69.8,64.4,83,30.02,10.0,SSW,6.9,-,N/A,,Overcast,200,2012-12-04 07:15:00
1:35 AM,69.8,64.4,83,30.03,10.0,SSW,6.9,-,N/A,,Overcast,210,2012-12-04 07:35:00
1:55 AM,69.8,64.4,83,30.03,10.0,SSW,9.2,16.1,N/A,,Overcast,210,2012-12-04 07:55:00
2:15 AM,69.8,64.4,83,30.03,10.0,SSW,5.8,-,N/A,,Overcast,200,2012-12-04 08:15:00
2:35 AM,69.8,64.4,83,30.03,10.0,SSW,8.1,-,N/A,,Overcast,200,2012-12-04 08:35:00
2:55 AM,69.8,64.4,83,30.03,10.0,South,6.9,-,N/A,,Overcast,190,2012-12-04 08:55:00
3:15 AM,69.8,64.4,83,30.03,10.0,SSW,8.1,-,N/A,,Overcast,210,2012-12-04 09:15:00
3:35 AM,69.8,64.4,83,30.02,10.0,SSW,12.7,17.3,N/A,,Overcast,200,2012-12-04 09:35:00
3:55 AM,69.8,64.4,83,30.02,10.0,SSW,8.1,-,N/A,,Mostly Cloudy,210,2012-12-04 09:55:00
4:15 AM,69.8,62.6,78,30.02,10.0,SSW,10.4,18.4,N/A,,Overcast,210,2012-12-04 10:15:00
4:35 AM,69.8,62.6,78,30.02,10.0,SSW,8.1,16.1,N/A,,Overcast,210,2012-12-04 10:35:00
4:55 AM,69.8,62.6,78,30.02,10.0,SW,6.9,-,N/A,,Overcast,220,2012-12-04 10:55:00
5:15 AM,69.8,62.6,78,30.02,10.0,South,6.9,-,N/A,,Overcast,190,2012-12-04 11:15:00
5:35 AM,69.8,62.6,78,30.02,10.0,SSW,9.2,-,N/A,,Overcast,210,2012-12-04 11:35:00
5:55 AM,69.8,62.6,78,30.03,10.0,South,6.9,-,N/A,,Overcast,190,2012-12-04 11:55:00
6:15 AM,69.8,62.6,78,30.03,10.0,SSW,8.1,17.3,N/A,,Light Drizzle,210,2012-12-04 12:15:00
6:35 AM,69.8,62.6,78,30.03,10.0,SSW,6.9,-,N/A,,Overcast,200,2012-12-04 12:35:00
6:55 AM,69.8,62.6,78,30.05,10.0,SSW,6.9,-,N/A,,Overcast,210,2012-12-04 12:55:00
7:15 AM,69.8,62.6,78,30.06,10.0,SW,4.6,-,N/A,Thunderstorm,Overcast,220,2012-12-04 13:15:00
7:35 AM,68.0,64.4,88,30.06,5.0,SW,3.5,-,N/A,Thunderstorm,Unknown,230,2012-12-04 13:35:00
7:55 AM,68.0,68.0,100,30.07,4.0,SW,3.5,-,N/A,Rain-Thunderstorm,Thunderstorms and Rain,230,2012-12-04 13:55:00
8:15 AM,68.0,68.0,100,30.08,7.0,SW,5.8,-,N/A,Thunderstorm,Thunderstorm,220,2012-12-04 14:15:00
8:35 AM,68.0,68.0,100,30.09,4.0,WSW,6.9,-,0.02,Rain-Thunderstorm,Light Thunderstorms and Rain,250,2012-12-04 14:35:00
9:15 AM,68.0,66.2,94,30.11,3.0,WSW,5.8,-,0.01,Rain-Thunderstorm,Thunderstorms and Rain,250,2012-12-04 15:15:00
9:35 AM,66.2,64.4,94,30.11,3.0,West,9.2,-,0.03,Thunderstorm,Drizzle,280,2012-12-04 15:35:00
9:55 AM,64.4,64.4,100,30.12,5.0,West,6.9,-,0.03,Thunderstorm,Overcast,260,2012-12-04 15:55:00
10:15 AM,64.4,64.4,100,30.13,7.0,WSW,4.6,-,N/A,Thunderstorm,Unknown,250,2012-12-04 16:15:00
10:35 AM,64.4,64.4,100,30.13,10.0,West,6.9,-,N/A,Thunderstorm,Overcast,260,2012-12-04 16:35:00
10:55 AM,64.4,62.6,94,30.14,7.0,WNW,4.6,-,N/A,Thunderstorm,Overcast,290,2012-12-04 16:55:00
11:15 AM,62.6,62.6,100,30.14,7.0,Calm,Calm,-,N/A,Thunderstorm,Overcast,0,2012-12-04 17:15:00
11:35 AM,62.6,60.8,94,30.15,10.0,NNE,4.6,-,N/A,Thunderstorm,Overcast,20,2012-12-04 17:35:00
11:55 AM,60.8,59.0,94,30.15,7.0,NNW,10.4,-,N/A,,Overcast,340,2012-12-04 17:55:00
12:15 PM,60.8,59.0,94,30.14,7.0,NW,4.6,-,N/A,,Overcast,320,2012-12-04 18:15:00
12:35 PM,60.8,59.0,94,30.14,7.0,North,5.8,-,N/A,Thunderstorm,Overcast,350,2012-12-04 18:35:00
12:55 PM,60.8,57.2,88,30.14,10.0,North,6.9,-,N/A,,Overcast,350,2012-12-04 18:55:00
1:15 PM,60.8,57.2,88,30.14,10.0,North,6.9,-,N/A,,Overcast,350,2012-12-04 19:15:00
1:35 PM,62.6,53.6,72,30.14,10.0,NNW,3.5,-,N/A,,Overcast,340,2012-12-04 19:35:00
1:55 PM,62.6,53.6,72,30.14,10.0,North,9.2,-,N/A,,Overcast,350,2012-12-04 19:55:00
2:15 PM,60.8,53.6,77,30.14,10.0,North,9.2,-,N/A,,Overcast,360,2012-12-04 20:15:00
2:35 PM,60.8,53.6,77,30.15,10.0,North,5.8,-,N/A,,Overcast,10,2012-12-04 20:35:00
2:55 PM,62.6,53.6,72,30.15,10.0,NNE,3.5,-,N/A,,Overcast,20,2012-12-04 20:55:00
3:15 PM,62.6,51.8,68,30.16,10.0,North,5.8,-,N/A,,Overcast,350,2012-12-04 21:15:00
3:35 PM,62.6,53.6,72,30.17,10.0,NNE,3.5,-,N/A,,Overcast,20,2012-12-04 21:35:00
3:55 PM,62.6,51.8,68,30.17,10.0,North,8.1,-,N/A,,Mostly Cloudy,10,2012-12-04 21:55:00
4:15 PM,62.6,51.8,68,30.18,10.0,North,4.6,-,N/A,,Scattered Clouds,10,2012-12-04 22:15:00
4:35 PM,62.6,51.8,68,30.18,10.0,North,3.5,-,N/A,,Scattered Clouds,360,2012-12-04 22:35:00
4:55 PM,62.6,50.0,63,30.18,10.0,North,4.6,-,N/A,,Scattered Clouds,360,2012-12-04 22:55:00
5:15 PM,60.8,50.0,68,30.18,10.0,North,4.6,-,N/A,,Scattered Clouds,10,2012-12-04 23:15:00
5:35 PM,59.0,50.0,72,30.18,10.0,Calm,Calm,-,N/A,,Clear,0,2012-12-04 23:35:00
5:55 PM,60.8,48.2,63,30.19,10.0,NNE,3.5,-,N/A,,Clear,20,2012-12-04 23:55:00
6:15 PM,60.8,46.4,59,30.20,10.0,North,6.9,-,N/A,,Clear,360,2012-12-05 00:15:00
6:35 PM,57.2,46.4,67,30.21,10.0,ENE,3.5,-,N/A,,Clear,70,2012-12-05 00:35:00
6:55 PM,57.2,46.4,67,30.21,10.0,NNE,3.5,-,N/A,,Clear,20,2012-12-05 00:55:00
7:15 PM,57.2,46.4,67,30.22,10.0,North,4.6,-,N/A,,Clear,360,2012-12-05 01:15:00
7:35 PM,59.0,44.6,59,30.23,10.0,North,6.9,-,N/A,,Clear,10,2012-12-05 01:35:00
7:55 PM,59.0,44.6,59,30.23,10.0,Calm,Calm,-,N/A,,Clear,0,2012-12-05 01:55:00
8:15 PM,55.4,44.6,67,30.24,10.0,Calm,Calm,-,N/A,,Clear,0,2012-12-05 02:15:00
8:35 PM,55.4,44.6,67,30.25,10.0,NNE,5.8,-,N/A,,Clear,30,2012-12-05 02:35:00
8:55 PM,51.8,42.8,71,30.25,10.0,Calm,Calm,-,N/A,,Clear,0,2012-12-05 02:55:00
9:15 PM,55.4,44.6,67,30.25,10.0,NNE,3.5,-,N/A,,Clear,30,2012-12-05 03:15:00
9:35 PM,51.8,42.8,71,30.25,10.0,Calm,Calm,-,N/A,,Clear,0,2012-12-05 03:35:00
9:55 PM,51.8,42.8,71,30.26,10.0,Calm,Calm,-,N/A,,Clear,0,2012-12-05 03:55:00
10:15 PM,51.8,42.8,71,30.27,10.0,Calm,Calm,-,N/A,,Clear,0,2012-12-05 04:15:00
10:35 PM,46.4,42.8,87,30.27,10.0,Calm,Calm,-,N/A,,Clear,0,2012-12-05 04:35:00
11:15 PM,46.4,41.0,81,30.28,10.0,NNE,3.5,-,N/A,,Clear,20,2012-12-05 05:15:00
11:35 PM,50.0,42.8,76,30.28,10.0,Calm,Calm,-,N/A,,Clear,0,2012-12-05 05:35:00
11:55 PM,50.0,41.0,71,30.28,10.0,Calm,Calm,-,N/A,,Clear,0,2012-12-05 05:55:00